Time,TemperatureF,DewpointF,PressureIn,WindDirection,WindDirectionDegrees,WindSpeedMPH,WindSpeedGustMPH,Humidity,HourlyPrecipIn,Conditions,Clouds,dailyrainin,SoftwareType,DateUTC
2013-06-16 00:01:00,69.2,63.5,30.00,SW,231,5.0,7.0,82,0.00,,CLR,0.01,VWS V14.01,2013-06-16 04:01:00,
2013-06-16 00:02:00,69.2,63.5,30.00,WSW,244,5.0,6.0,82,0.00,,CLR,0.00,VWS V14.01,2013-06-16 04:02:00,
2013-06-16 00:07:00,69.1,63.4,30.00,SW,236,5.0,8.0,82,0.00,,CLR,0.00,VWS V14.01,2013-06-16 04:07:00,
2013-06-16 00:12:00,69.0,63.6,30.00,WSW,241,5.0,7.0,83,0.00,,CLR,0.00,VWS V14.01,2013-06-16 04:12:00,
2013-06-16 00:17:00,69.0,63.6,30.00,WSW,243,5.0,7.0,83,0.00,,CLR,0.00,VWS V14.01,2013-06-16 04:17:00,
2013-06-16 00:22:00,68.9,63.5,30.00,West,262,3.0,4.0,83,0.00,,CLR,0.00,VWS V14.01,2013-06-16 04:22:00,
2013-06-16 00:27:00,68.8,63.4,30.00,SW,231,2.0,4.0,83,0.00,,CLR,0.00,VWS V14.01,2013-06-16 04:27:00,
2013-06-16 00:32:00,68.6,63.6,30.00,SW,229,4.0,4.0,84,0.00,,CLR,0.00,VWS V14.01,2013-06-16 04:32:00,
2013-06-16 00:37:00,68.5,63.5,30.00,SW,215,3.0,4.0,84,0.00,,CLR,0.00,VWS V14.01,2013-06-16 04:37:00,
2013-06-16 00:42:00,68.3,63.3,30.00,WSW,241,6.0,6.0,84,0.00,,CLR,0.00,VWS V14.01,2013-06-16 04:42:00,
2013-06-16 00:47:00,68.2,63.5,30.00,SW,229,6.0,6.0,85,0.00,,CLR,0.00,VWS V14.01,2013-06-16 04:47:00,
2013-06-16 00:52:00,68.1,63.4,30.00,WSW,240,5.0,6.0,85,0.00,,CLR,0.00,VWS V14.01,2013-06-16 04:52:00,
2013-06-16 00:57:00,68.0,63.3,30.00,SW,217,4.0,7.0,85,0.00,,CLR,0.00,VWS V14.01,2013-06-16 04:57:00,
2013-06-16 01:02:00,67.9,63.6,30.00,SSW,200,5.0,8.0,86,0.00,,CLR,0.00,VWS V14.01,2013-06-16 05:02:00,
2013-06-16 01:07:00,67.6,63.3,30.00,SW,217,3.0,6.0,86,0.00,,CLR,0.00,VWS V14.01,2013-06-16 05:07:00,
2013-06-16 01:12:00,67.4,63.1,30.00,WSW,243,5.0,5.0,86,0.00,,CLR,0.00,VWS V14.01,2013-06-16 05:12:00,
2013-06-16 01:17:00,67.3,63.3,30.00,SW,232,7.0,7.0,87,0.00,,CLR,0.00,VWS V14.01,2013-06-16 05:17:00,
2013-06-16 01:22:00,67.2,63.2,30.00,WSW,240,6.0,6.0,87,0.00,,CLR,0.00,VWS V14.01,2013-06-16 05:22:00,
2013-06-16 01:27:00,67.3,63.3,30.00,West,261,5.0,6.0,87,0.00,,CLR,0.00,VWS V14.01,2013-06-16 05:27:00,
2013-06-16 01:32:00,67.3,63.0,30.00,WSW,243,4.0,6.0,86,0.00,,CLR,0.00,VWS V14.01,2013-06-16 05:32:00,
2013-06-16 01:37:00,67.3,63.0,30.00,SW,236,4.0,6.0,86,0.00,,CLR,0.00,VWS V14.01,2013-06-16 05:37:00,
2013-06-16 01:42:00,67.3,63.0,30.00,SW,228,3.0,6.0,86,0.00,,CLR,0.00,VWS V14.01,2013-06-16 05:42:00,
2013-06-16 01:47:00,67.4,63.1,30.00,SW,217,4.0,6.0,86,0.00,,CLR,0.00,VWS V14.01,2013-06-16 05:47:00,
2013-06-16 01:52:00,67.3,63.0,30.00,SSW,210,5.0,7.0,86,0.00,,CLR,0.00,VWS V14.01,2013-06-16 05:52:00,
2013-06-16 01:57:00,67.2,63.2,30.00,SW,228,3.0,5.0,87,0.00,,CLR,0.00,VWS V14.01,2013-06-16 05:57:00,
2013-06-16 02:02:00,67.1,63.1,30.00,SW,230,5.0,7.0,87,0.00,,CLR,0.00,VWS V14.01,2013-06-16 06:02:00,
2013-06-16 02:07:00,67.0,63.0,30.00,SW,236,4.0,6.0,87,0.00,,CLR,0.00,VWS V14.01,2013-06-16 06:07:00,
2013-06-16 02:12:00,67.0,63.0,30.00,SW,225,3.0,6.0,87,0.00,,CLR,0.00,VWS V14.01,2013-06-16 06:12:00,
2013-06-16 02:17:00,66.9,63.2,30.00,SW,219,4.0,6.0,88,0.00,,CLR,0.00,VWS V14.01,2013-06-16 06:17:00,
2013-06-16 02:22:00,66.9,63.2,30.00,SW,226,4.0,6.0,88,0.00,,CLR,0.00,VWS V14.01,2013-06-16 06:22:00,
2013-06-16 02:27:00,66.9,63.2,29.99,WSW,237,4.0,5.0,88,0.00,,CLR,0.00,VWS V14.01,2013-06-16 06:27:00,
2013-06-16 02:32:00,66.9,63.2,29.99,SW,220,4.0,5.0,88,0.00,,CLR,0.00,VWS V14.01,2013-06-16 06:32:00,
2013-06-16 02:37:00,66.8,63.5,30.00,SW,223,5.0,6.0,89,0.00,,CLR,0.00,VWS V14.01,2013-06-16 06:37:00,
2013-06-16 02:42:00,66.8,63.5,29.99,SW,215,5.0,5.0,89,0.00,,CLR,0.00,VWS V14.01,2013-06-16 06:42:00,
2013-06-16 02:47:00,66.8,63.5,29.99,SSW,209,5.0,5.0,89,0.00,,CLR,0.00,VWS V14.01,2013-06-16 06:47:00,
2013-06-16 02:52:00,66.8,63.5,29.99,SW,218,4.0,5.0,89,0.00,,CLR,0.00,VWS V14.01,2013-06-16 06:52:00,
2013-06-16 02:57:00,66.7,63.4,29.99,SW,233,4.0,5.0,89,0.00,,CLR,0.00,VWS V14.01,2013-06-16 06:57:00,
2013-06-16 03:02:00,66.6,63.3,29.99,SW,228,3.0,5.0,89,0.00,,CLR,0.00,VWS V14.01,2013-06-16 07:02:00,
2013-06-16 03:07:00,66.6,63.3,29.99,WSW,237,3.0,5.0,89,0.00,,CLR,0.00,VWS V14.01,2013-06-16 07:07:00,
2013-06-16 03:12:00,66.5,63.2,29.99,SW,234,5.0,5.0,89,0.00,,CLR,0.00,VWS V14.01,2013-06-16 07:12:00,
2013-06-16 03:17:00,66.5,63.2,29.99,SSW,200,5.0,5.0,89,0.00,,CLR,0.00,VWS V14.01,2013-06-16 07:17:00,
2013-06-16 03:22:00,66.3,63.3,29.99,SW,214,4.0,5.0,90,0.00,,CLR,0.00,VWS V14.01,2013-06-16 07:22:00,
2013-06-16 03:26:00,66.3,63.3,29.99,SW,227,5.0,5.0,90,0.00,,CLR,0.00,VWS V14.01,2013-06-16 07:26:00,
2013-06-16 03:32:00,66.3,63.3,29.99,SW,219,4.0,5.0,90,0.00,,CLR,0.00,VWS V14.01,2013-06-16 07:32:00,
2013-06-16 03:37:00,66.3,63.3,29.99,SSW,211,2.0,5.0,90,0.00,,CLR,0.00,VWS V14.01,2013-06-16 07:37:00,
2013-06-16 03:42:00,66.2,63.2,29.99,SW,229,4.0,4.0,90,0.00,,CLR,0.00,VWS V14.01,2013-06-16 07:42:00,
2013-06-16 03:47:00,66.2,63.5,29.99,SSW,211,3.0,4.0,91,0.00,,CLR,0.00,VWS V14.01,2013-06-16 07:47:00,
2013-06-16 03:51:00,66.1,63.1,29.99,SW,223,3.0,4.0,90,0.00,,CLR,0.00,VWS V14.01,2013-06-16 07:51:00,
2013-06-16 03:56:00,66.1,63.1,29.98,WSW,237,4.0,4.0,90,0.00,,CLR,0.00,VWS V14.01,2013-06-16 07:56:00,
2013-06-16 04:01:00,66.1,63.1,29.99,SW,226,5.0,5.0,90,0.00,,CLR,0.00,VWS V14.01,2013-06-16 08:01:00,
2013-06-16 04:06:00,66.1,63.1,29.99,SW,224,3.0,4.0,90,0.00,,CLR,0.00,VWS V14.01,2013-06-16 08:06:00,
2013-06-16 04:11:00,66.1,63.1,29.99,SW,227,3.0,3.0,90,0.00,,CLR,0.00,VWS V14.01,2013-06-16 08:11:00,
2013-06-16 04:16:00,66.1,63.1,29.99,SW,219,4.0,4.0,90,0.00,,CLR,0.00,VWS V14.01,2013-06-16 08:16:00,
2013-06-16 04:21:00,66.1,63.1,29.99,SW,219,3.0,5.0,90,0.00,,BKN070,0.00,VWS V14.01,2013-06-16 08:21:00,
2013-06-16 04:26:00,66.2,63.2,29.99,SSW,213,1.0,2.0,90,0.00,,BKN070,0.00,VWS V14.01,2013-06-16 08:26:00,
2013-06-16 04:31:00,66.1,63.1,29.99,SSW,198,3.0,4.0,90,0.00,,BKN070,0.00,VWS V14.01,2013-06-16 08:31:00,
2013-06-16 04:36:00,66.1,63.4,29.99,SSW,211,3.0,4.0,91,0.00,,BKN070,0.00,VWS V14.01,2013-06-16 08:36:00,
2013-06-16 04:41:00,66.0,63.3,29.99,SSW,209,5.0,5.0,91,0.00,,FEW070,0.00,VWS V14.01,2013-06-16 08:41:00,
2013-06-16 04:46:00,66.0,63.3,29.99,SW,217,4.0,4.0,91,0.00,,FEW070,0.00,VWS V14.01,2013-06-16 08:46:00,
2013-06-16 04:51:00,65.9,63.5,29.99,SSW,213,1.0,3.0,92,0.00,,FEW070,0.00,VWS V14.01,2013-06-16 08:51:00,
2013-06-16 04:56:00,65.9,63.5,29.99,SW,222,2.0,4.0,92,0.00,,FEW070,0.00,VWS V14.01,2013-06-16 08:56:00,
2013-06-16 05:01:00,65.9,63.5,29.99,SW,219,3.0,3.0,92,0.00,,CLR,0.00,VWS V14.01,2013-06-16 09:01:00,
2013-06-16 05:06:00,65.8,63.4,29.99,SW,221,4.0,5.0,92,0.00,,CLR,0.00,VWS V14.01,2013-06-16 09:06:00,
2013-06-16 05:11:00,65.8,63.4,29.99,SSW,197,3.0,4.0,92,0.00,,CLR,0.00,VWS V14.01,2013-06-16 09:11:00,
2013-06-16 05:16:00,65.8,63.4,29.98,SSW,203,5.0,6.0,92,0.00,,CLR,0.00,VWS V14.01,2013-06-16 09:16:00,
2013-06-16 05:21:00,65.8,63.4,29.99,SSW,205,5.0,5.0,92,0.00,,CLR,0.00,VWS V14.01,2013-06-16 09:21:00,
2013-06-16 05:26:00,65.7,63.3,29.99,SSW,209,4.0,4.0,92,0.00,,CLR,0.00,VWS V14.01,2013-06-16 09:26:00,
2013-06-16 05:31:00,65.7,63.6,29.98,SSW,213,4.0,4.0,93,0.00,,CLR,0.00,VWS V14.01,2013-06-16 09:31:00,
2013-06-16 05:36:00,65.6,63.5,29.98,SSW,205,7.0,7.0,93,0.00,,CLR,0.00,VWS V14.01,2013-06-16 09:36:00,
2013-06-16 05:41:00,65.6,63.5,29.98,SSW,200,4.0,5.0,93,0.00,,CLR,0.00,VWS V14.01,2013-06-16 09:41:00,
2013-06-16 05:46:00,65.5,63.4,29.98,SSW,201,4.0,4.0,93,0.00,,CLR,0.00,VWS V14.01,2013-06-16 09:46:00,
2013-06-16 05:51:00,65.5,63.4,29.98,SSW,204,6.0,6.0,93,0.00,,CLR,0.00,VWS V14.01,2013-06-16 09:51:00,
2013-06-16 05:56:00,65.5,63.4,29.98,SSW,209,4.0,5.0,93,0.00,,CLR,0.00,VWS V14.01,2013-06-16 09:56:00,
2013-06-16 06:01:00,65.5,63.7,29.98,SW,223,5.0,5.0,94,0.00,,CLR,0.00,VWS V14.01,2013-06-16 10:01:00,
2013-06-16 06:06:00,65.6,63.5,29.98,SW,225,3.0,4.0,93,0.00,,CLR,0.00,VWS V14.01,2013-06-16 10:06:00,
2013-06-16 06:11:00,65.8,63.7,29.98,SW,221,5.0,6.0,93,0.00,,CLR,0.00,VWS V14.01,2013-06-16 10:11:00,
2013-06-16 06:16:00,65.9,63.8,29.98,SW,215,5.0,6.0,93,0.00,,CLR,0.00,VWS V14.01,2013-06-16 10:16:00,
2013-06-16 06:21:00,66.1,64.0,29.98,SW,216,4.0,4.0,93,0.00,,CLR,0.00,VWS V14.01,2013-06-16 10:21:00,
2013-06-16 06:26:00,66.2,64.1,29.98,SW,229,5.0,6.0,93,0.00,,CLR,0.00,VWS V14.01,2013-06-16 10:26:00,
2013-06-16 06:31:00,66.5,64.1,29.98,SW,215,4.0,5.0,92,0.00,,CLR,0.00,VWS V14.01,2013-06-16 10:31:00,
2013-06-16 06:36:00,66.7,64.3,29.98,SW,223,5.0,5.0,92,0.00,,CLR,0.00,VWS V14.01,2013-06-16 10:36:00,
2013-06-16 06:41:00,66.8,64.1,29.98,SW,220,3.0,4.0,91,0.00,,CLR,0.00,VWS V14.01,2013-06-16 10:41:00,
2013-06-16 06:46:00,67.0,64.3,29.98,SW,217,5.0,6.0,91,0.00,,CLR,0.00,VWS V14.01,2013-06-16 10:46:00,
2013-06-16 06:51:00,67.1,64.4,29.98,SW,215,3.0,5.0,91,0.00,,CLR,0.00,VWS V14.01,2013-06-16 10:51:00,
2013-06-16 06:56:00,67.1,64.4,29.98,SSW,209,3.0,3.0,91,0.00,,CLR,0.00,VWS V14.01,2013-06-16 10:56:00,
2013-06-16 07:01:00,67.2,64.5,29.98,SSW,211,3.0,4.0,91,0.00,,CLR,0.00,VWS V14.01,2013-06-16 11:01:00,
2013-06-16 07:06:00,67.2,64.5,29.98,SW,226,4.0,4.0,91,0.00,,CLR,0.00,VWS V14.01,2013-06-16 11:06:00,
2013-06-16 07:11:00,67.3,64.6,29.98,SW,214,4.0,5.0,91,0.00,,CLR,0.00,VWS V14.01,2013-06-16 11:11:00,
2013-06-16 07:16:00,67.4,64.7,29.98,SSW,199,4.0,4.0,91,0.00,,CLR,0.00,VWS V14.01,2013-06-16 11:16:00,
2013-06-16 07:21:00,67.7,65.0,29.98,SW,216,4.0,4.0,91,0.00,,CLR,0.00,VWS V14.01,2013-06-16 11:21:00,
2013-06-16 07:26:00,68.0,65.3,29.98,SW,221,5.0,6.0,91,0.00,,CLR,0.00,VWS V14.01,2013-06-16 11:26:00,
2013-06-16 07:31:00,68.3,65.6,29.98,SW,219,10.0,10.0,91,0.00,,CLR,0.00,VWS V14.01,2013-06-16 11:31:00,
2013-06-16 07:36:00,68.6,65.2,29.97,SW,218,6.0,7.0,89,0.00,,CLR,0.00,VWS V14.01,2013-06-16 11:36:00,
2013-06-16 07:41:00,68.9,65.5,29.97,SW,223,5.0,5.0,89,0.00,,CLR,0.00,VWS V14.01,2013-06-16 11:41:00,
2013-06-16 07:46:00,68.9,65.5,29.98,SW,221,7.0,7.0,89,0.00,,CLR,0.00,VWS V14.01,2013-06-16 11:46:00,
2013-06-16 07:51:00,69.1,65.7,29.98,SW,230,8.0,10.0,89,0.00,,CLR,0.00,VWS V14.01,2013-06-16 11:51:00,
2013-06-16 07:56:00,69.5,65.8,29.98,SW,218,6.0,9.0,88,0.00,,CLR,0.00,VWS V14.01,2013-06-16 11:56:00,
2013-06-16 08:01:00,69.9,65.9,29.97,SSW,206,7.0,7.0,87,0.00,,CLR,0.00,VWS V14.01,2013-06-16 12:01:00,
2013-06-16 08:06:00,70.2,66.2,29.97,SW,232,4.0,8.0,87,0.00,,CLR,0.00,VWS V14.01,2013-06-16 12:06:00,
2013-06-16 08:11:00,70.6,65.9,29.97,SSW,207,6.0,7.0,85,0.00,,CLR,0.00,VWS V14.01,2013-06-16 12:11:00,
2013-06-16 08:16:00,70.5,65.4,29.97,SSW,194,7.0,12.0,84,0.00,,CLR,0.00,VWS V14.01,2013-06-16 12:16:00,
2013-06-16 08:21:00,70.3,65.6,29.97,SSW,210,7.0,8.0,85,0.00,,CLR,0.00,VWS V14.01,2013-06-16 12:21:00,
2013-06-16 08:26:00,70.2,65.8,29.96,SSW,194,7.0,7.0,86,0.00,,CLR,0.00,VWS V14.01,2013-06-16 12:26:00,
2013-06-16 08:31:00,70.3,66.2,29.96,SSW,204,4.0,6.0,87,0.00,,CLR,0.00,VWS V14.01,2013-06-16 12:31:00,
2013-06-16 08:36:00,70.4,66.3,29.96,SSW,193,8.0,9.0,87,0.00,,CLR,0.00,VWS V14.01,2013-06-16 12:36:00,
2013-06-16 08:41:00,70.4,66.3,29.96,SSW,197,6.0,9.0,87,0.00,,CLR,0.00,VWS V14.01,2013-06-16 12:41:00,
2013-06-16 08:46:00,70.4,66.7,29.96,SSW,211,7.0,9.0,88,0.00,,CLR,0.00,VWS V14.01,2013-06-16 12:46:00,
2013-06-16 08:51:00,70.8,67.1,29.96,SSW,205,7.0,9.0,88,0.00,,CLR,0.00,VWS V14.01,2013-06-16 12:51:00,
2013-06-16 08:56:00,71.2,67.1,29.96,SSW,205,10.0,10.0,87,0.00,,CLR,0.00,VWS V14.01,2013-06-16 12:56:00,
2013-06-16 09:01:00,71.5,67.4,29.96,South,189,5.0,8.0,87,0.00,,CLR,0.00,VWS V14.01,2013-06-16 13:01:00,
2013-06-16 09:06:00,72.2,68.1,29.96,SSW,205,4.0,6.0,87,0.00,,CLR,0.00,VWS V14.01,2013-06-16 13:06:00,
2013-06-16 09:11:00,72.9,67.4,29.95,SSW,205,7.0,11.0,83,0.00,,CLR,0.00,VWS V14.01,2013-06-16 13:11:00,
2013-06-16 09:16:00,73.3,67.8,29.95,SW,215,6.0,6.0,83,0.00,,CLR,0.00,VWS V14.01,2013-06-16 13:16:00,
2013-06-16 09:21:00,73.3,67.5,29.95,SSW,209,4.0,6.0,82,0.00,,CLR,0.00,VWS V14.01,2013-06-16 13:21:00,
2013-06-16 09:26:00,73.7,68.2,29.95,SSW,200,7.0,7.0,83,0.00,,CLR,0.00,VWS V14.01,2013-06-16 13:26:00,
2013-06-16 09:31:00,74.3,68.8,29.95,SSW,207,5.0,5.0,83,0.00,,CLR,0.00,VWS V14.01,2013-06-16 13:31:00,
2013-06-16 09:36:00,74.8,68.2,29.94,SW,218,5.0,7.0,80,0.00,,CLR,0.00,VWS V14.01,2013-06-16 13:36:00,
2013-06-16 09:41:00,75.4,68.4,29.94,SW,214,10.0,10.0,79,0.00,,CLR,0.00,VWS V14.01,2013-06-16 13:41:00,
2013-06-16 09:46:00,75.7,68.4,29.94,SW,225,6.0,6.0,78,0.00,,CLR,0.00,VWS V14.01,2013-06-16 13:46:00,
2013-06-16 09:51:00,76.0,69.0,29.94,SW,220,6.0,6.0,79,0.00,,CLR,0.00,VWS V14.01,2013-06-16 13:51:00,
2013-06-16 09:56:00,76.2,68.1,29.94,SW,215,8.0,8.0,76,0.00,,CLR,0.00,VWS V14.01,2013-06-16 13:56:00,
2013-06-16 10:01:00,76.0,67.9,29.93,SW,222,6.0,8.0,76,0.00,,CLR,0.00,VWS V14.01,2013-06-16 14:01:00,
2013-06-16 10:06:00,76.1,68.4,29.93,SSW,200,7.0,8.0,77,0.00,,CLR,0.00,VWS V14.01,2013-06-16 14:06:00,
2013-06-16 10:11:00,76.2,68.5,29.93,SW,222,10.0,11.0,77,0.00,,CLR,0.00,VWS V14.01,2013-06-16 14:11:00,
2013-06-16 10:16:00,76.2,68.8,29.93,SSW,202,7.0,7.0,78,0.00,,CLR,0.00,VWS V14.01,2013-06-16 14:16:00,
2013-06-16 10:21:00,76.3,68.9,29.93,SSW,211,5.0,6.0,78,0.00,,CLR,0.00,VWS V14.01,2013-06-16 14:21:00,
2013-06-16 10:26:00,76.6,69.2,29.93,SSW,194,9.0,9.0,78,0.00,,CLR,0.00,VWS V14.01,2013-06-16 14:26:00,
2013-06-16 10:31:00,76.4,68.3,29.93,SSW,196,7.0,8.0,76,0.00,,CLR,0.00,VWS V14.01,2013-06-16 14:31:00,
2013-06-16 10:36:00,75.9,68.6,29.93,South,178,8.0,10.0,78,0.00,,CLR,0.00,VWS V14.01,2013-06-16 14:36:00,
2013-06-16 10:41:00,75.9,68.9,29.93,SSW,200,4.0,5.0,79,0.00,,CLR,0.00,VWS V14.01,2013-06-16 14:41:00,
2013-06-16 10:46:00,76.2,69.2,29.93,SSW,193,5.0,6.0,79,0.00,,CLR,0.00,VWS V14.01,2013-06-16 14:46:00,
2013-06-16 10:51:00,76.5,69.1,29.93,SW,219,8.0,8.0,78,0.00,,CLR,0.00,VWS V14.01,2013-06-16 14:51:00,
2013-06-16 10:56:00,76.5,69.1,29.92,South,189,5.0,8.0,78,0.00,,CLR,0.00,VWS V14.01,2013-06-16 14:56:00,
2013-06-16 11:01:00,76.4,68.7,29.92,SSW,198,11.0,11.0,77,0.00,,CLR,0.00,VWS V14.01,2013-06-16 15:01:00,
2013-06-16 11:06:00,76.4,69.4,29.92,SSW,203,8.0,9.0,79,0.00,,CLR,0.00,VWS V14.01,2013-06-16 15:06:00,
2013-06-16 11:11:00,76.5,69.1,29.92,SSW,196,10.0,13.0,78,0.00,,CLR,0.00,VWS V14.01,2013-06-16 15:11:00,
2013-06-16 11:16:00,76.1,68.8,29.92,SSW,209,11.0,11.0,78,0.00,,CLR,0.00,VWS V14.01,2013-06-16 15:16:00,
2013-06-16 11:21:00,76.0,68.7,29.92,SSW,196,10.0,11.0,78,0.00,,CLR,0.00,VWS V14.01,2013-06-16 15:21:00,
2013-06-16 11:26:00,76.1,69.1,29.91,SSW,205,8.0,12.0,79,0.00,,CLR,0.00,VWS V14.01,2013-06-16 15:26:00,
2013-06-16 11:31:00,76.4,69.0,29.91,SSW,207,9.0,11.0,78,0.00,,CLR,0.00,VWS V14.01,2013-06-16 15:31:00,
2013-06-16 11:36:00,76.6,69.2,29.91,SSW,197,11.0,13.0,78,0.00,,CLR,0.00,VWS V14.01,2013-06-16 15:36:00,
2013-06-16 11:41:00,76.8,69.1,29.91,South,189,9.0,13.0,77,0.00,,CLR,0.00,VWS V14.01,2013-06-16 15:41:00,
2013-06-16 11:46:00,76.8,69.1,29.92,SSW,202,13.0,13.0,77,0.00,,CLR,0.00,VWS V14.01,2013-06-16 15:46:00,
2013-06-16 11:51:00,76.8,69.4,29.91,SSW,195,9.0,9.0,78,0.00,,CLR,0.00,VWS V14.01,2013-06-16 15:51:00,
2013-06-16 11:56:00,76.8,69.4,29.91,South,186,14.0,14.0,78,0.00,,SCT110,0.00,VWS V14.01,2013-06-16 15:56:00,
2013-06-16 12:01:00,77.0,69.6,29.91,SSW,202,12.0,14.0,78,0.00,,SCT110,0.00,VWS V14.01,2013-06-16 16:01:00,
2013-06-16 12:06:00,77.2,69.8,29.91,SSW,197,11.0,11.0,78,0.00,,SCT110,0.00,VWS V14.01,2013-06-16 16:06:00,
2013-06-16 12:11:00,77.5,70.1,29.91,SSW,197,12.0,12.0,78,0.00,,SCT110,0.00,VWS V14.01,2013-06-16 16:11:00,
2013-06-16 12:16:00,77.7,69.9,29.91,SSW,204,9.0,12.0,77,0.00,,SCT110,0.00,VWS V14.01,2013-06-16 16:16:00,
2013-06-16 12:21:00,77.4,69.2,29.90,South,190,9.0,11.0,76,0.00,,SCT110,0.00,VWS V14.01,2013-06-16 16:21:00,
2013-06-16 12:26:00,77.0,68.9,29.90,SSW,198,7.0,9.0,76,0.00,,SCT110,0.00,VWS V14.01,2013-06-16 16:26:00,
2013-06-16 12:31:00,76.5,69.1,29.90,SSW,194,5.0,7.0,78,0.00,,SCT110,0.00,VWS V14.01,2013-06-16 16:31:00,
2013-06-16 12:36:00,76.8,68.7,29.90,SSW,201,7.0,10.0,76,0.00,,FEW110,0.00,VWS V14.01,2013-06-16 16:36:00,
2013-06-16 12:41:00,77.6,70.2,29.90,SSW,213,7.0,11.0,78,0.00,,FEW110,0.00,VWS V14.01,2013-06-16 16:41:00,
2013-06-16 12:46:00,78.3,70.1,29.90,SW,229,9.0,9.0,76,0.00,,FEW110,0.00,VWS V14.01,2013-06-16 16:46:00,
2013-06-16 12:51:00,78.5,69.9,29.89,SW,234,7.0,7.0,75,0.00,,FEW110,0.00,VWS V14.01,2013-06-16 16:51:00,
2013-06-16 12:56:00,78.6,69.6,29.89,SSW,200,11.0,12.0,74,0.00,,FEW110,0.00,VWS V14.01,2013-06-16 16:56:00,
2013-06-16 13:01:00,78.4,69.0,29.89,SSW,204,7.0,9.0,73,0.00,,FEW110,0.00,VWS V14.01,2013-06-16 17:01:00,
2013-06-16 13:06:00,78.7,70.1,29.88,SW,222,7.0,7.0,75,0.00,,SCT100,0.00,VWS V14.01,2013-06-16 17:06:00,
2013-06-16 13:11:00,79.4,69.6,29.89,WSW,240,7.0,10.0,72,0.00,,SCT100,0.00,VWS V14.01,2013-06-16 17:11:00,
2013-06-16 13:16:00,80.3,68.3,29.88,SW,225,5.0,9.0,67,0.00,,SCT100,0.00,VWS V14.01,2013-06-16 17:16:00,
2013-06-16 13:21:00,81.3,70.2,29.88,WSW,242,10.0,10.0,69,0.00,,SCT100,0.00,VWS V14.01,2013-06-16 17:21:00,
2013-06-16 13:26:00,82.2,67.9,29.88,WSW,248,10.0,12.0,62,0.00,,FEW100,0.00,VWS V14.01,2013-06-16 17:26:00,
2013-06-16 13:31:00,83.0,67.7,29.88,WSW,254,10.0,15.0,60,0.00,,FEW100,0.00,VWS V14.01,2013-06-16 17:31:00,
2013-06-16 13:36:00,83.6,67.3,29.88,SW,234,8.0,16.0,58,0.00,,FEW100,0.00,VWS V14.01,2013-06-16 17:36:00,
2013-06-16 13:41:00,83.8,67.0,29.87,WSW,246,15.0,15.0,57,0.00,,FEW100,0.00,VWS V14.01,2013-06-16 17:41:00,
2013-06-16 13:46:00,84.1,67.2,29.87,WSW,244,9.0,13.0,57,0.00,,CLR,0.00,VWS V14.01,2013-06-16 17:46:00,
2013-06-16 13:51:00,84.4,68.5,29.86,South,188,7.0,8.0,59,0.00,,CLR,0.00,VWS V14.01,2013-06-16 17:51:00,
2013-06-16 13:56:00,83.5,69.6,29.86,South,179,7.0,7.0,63,0.00,,CLR,0.00,VWS V14.01,2013-06-16 17:56:00,
2013-06-16 14:01:00,81.8,69.3,29.86,South,184,6.0,6.0,66,0.00,,CLR,0.00,VWS V14.01,2013-06-16 18:01:00,
2013-06-16 14:06:00,80.9,69.8,29.86,South,181,6.0,6.0,69,0.00,,CLR,0.00,VWS V14.01,2013-06-16 18:06:00,
2013-06-16 14:11:00,80.6,69.9,29.86,SSW,196,9.0,9.0,70,0.00,,CLR,0.00,VWS V14.01,2013-06-16 18:11:00,
2013-06-16 14:16:00,80.5,69.0,29.87,SSW,207,8.0,8.0,68,0.00,,CLR,0.00,VWS V14.01,2013-06-16 18:16:00,
2013-06-16 14:21:00,80.7,69.6,29.87,South,172,5.0,5.0,69,0.00,,CLR,0.00,VWS V14.01,2013-06-16 18:21:00,
2013-06-16 14:26:00,80.6,69.5,29.87,South,187,7.0,8.0,69,0.00,,CLR,0.00,VWS V14.01,2013-06-16 18:26:00,
2013-06-16 14:31:00,80.5,69.8,29.86,South,177,8.0,8.0,70,0.00,,CLR,0.00,VWS V14.01,2013-06-16 18:31:00,
2013-06-16 14:36:00,80.5,69.4,29.86,South,180,7.0,7.0,69,0.00,,CLR,0.00,VWS V14.01,2013-06-16 18:36:00,
2013-06-16 14:41:00,80.0,68.9,29.86,South,179,7.0,8.0,69,0.00,,CLR,0.00,VWS V14.01,2013-06-16 18:41:00,
2013-06-16 14:46:00,79.4,69.6,29.86,South,173,4.0,7.0,72,0.00,,CLR,0.00,VWS V14.01,2013-06-16 18:46:00,
2013-06-16 14:51:00,79.3,69.1,29.86,South,190,7.0,7.0,71,0.00,,CLR,0.00,VWS V14.01,2013-06-16 18:51:00,
2013-06-16 14:56:00,79.1,69.3,29.86,South,188,9.0,9.0,72,0.00,,CLR,0.00,VWS V14.01,2013-06-16 18:56:00,
2013-06-16 15:01:00,79.5,70.1,29.86,South,174,6.0,6.0,73,0.00,,CLR,0.00,VWS V14.01,2013-06-16 19:01:00,
2013-06-16 15:06:00,79.6,69.8,29.85,South,191,6.0,6.0,72,0.00,,CLR,0.00,VWS V14.01,2013-06-16 19:06:00,
2013-06-16 15:11:00,79.4,69.2,29.85,South,173,7.0,7.0,71,0.00,,CLR,0.00,VWS V14.01,2013-06-16 19:11:00,
2013-06-16 15:16:00,79.0,68.8,29.85,South,185,8.0,8.0,71,0.00,,CLR,0.00,VWS V14.01,2013-06-16 19:16:00,
2013-06-16 15:21:00,78.9,69.5,29.85,SSW,208,7.0,8.0,73,0.00,,CLR,0.00,VWS V14.01,2013-06-16 19:21:00,
2013-06-16 15:26:00,79.7,69.5,29.85,SW,221,6.0,6.0,71,0.00,,CLR,0.00,VWS V14.01,2013-06-16 19:26:00,
2013-06-16 15:31:00,81.6,69.2,29.85,SW,227,9.0,10.0,66,0.00,,CLR,0.00,VWS V14.01,2013-06-16 19:31:00,
2013-06-16 15:36:00,83.8,68.4,29.85,WSW,238,13.0,17.0,60,0.00,,CLR,0.00,VWS V14.01,2013-06-16 19:36:00,
2013-06-16 15:41:00,85.0,68.1,29.85,SW,217,9.0,16.0,57,0.00,,CLR,0.00,VWS V14.01,2013-06-16 19:41:00,
2013-06-16 15:46:00,85.7,68.2,29.84,WSW,251,12.0,16.0,56,0.00,,CLR,0.00,VWS V14.01,2013-06-16 19:46:00,
2013-06-16 15:51:00,86.2,68.7,29.84,WSW,242,9.0,12.0,56,0.00,,CLR,0.00,VWS V14.01,2013-06-16 19:51:00,
2013-06-16 15:56:00,86.3,67.7,29.84,WSW,256,10.0,18.0,54,0.00,,CLR,0.00,VWS V14.01,2013-06-16 19:56:00,
2013-06-16 16:01:00,86.1,68.6,29.84,SW,218,12.0,13.0,56,0.00,,CLR,0.00,VWS V14.01,2013-06-16 20:01:00,
2013-06-16 16:06:00,86.2,68.2,29.84,WSW,256,7.0,15.0,55,0.00,,CLR,0.00,VWS V14.01,2013-06-16 20:06:00,
2013-06-16 16:11:00,85.7,67.7,29.85,WSW,248,13.0,17.0,55,0.00,,CLR,0.00,VWS V14.01,2013-06-16 20:11:00,
2013-06-16 16:16:00,84.7,67.8,29.85,WSW,237,13.0,14.0,57,0.00,,CLR,0.00,VWS V14.01,2013-06-16 20:16:00,
2013-06-16 16:21:00,83.8,67.5,29.84,WSW,242,13.0,15.0,58,0.00,,CLR,0.00,VWS V14.01,2013-06-16 20:21:00,
2013-06-16 16:26:00,83.3,67.5,29.85,WSW,248,16.0,16.0,59,0.00,,CLR,0.00,VWS V14.01,2013-06-16 20:26:00,
2013-06-16 16:31:00,82.8,67.5,29.85,West,269,13.0,18.0,60,0.00,,CLR,0.00,VWS V14.01,2013-06-16 20:31:00,
2013-06-16 16:36:00,82.3,68.0,29.85,WSW,257,11.0,14.0,62,0.00,,CLR,0.00,VWS V14.01,2013-06-16 20:36:00,
2013-06-16 16:41:00,82.0,68.2,29.85,WSW,248,14.0,14.0,63,0.00,,CLR,0.00,VWS V14.01,2013-06-16 20:41:00,
2013-06-16 16:46:00,81.7,68.3,29.85,West,269,9.0,15.0,64,0.00,,CLR,0.00,VWS V14.01,2013-06-16 20:46:00,
2013-06-16 16:50:00,81.6,68.2,29.85,SW,234,10.0,13.0,64,0.00,,CLR,0.00,VWS V14.01,2013-06-16 20:50:00,
2013-06-16 16:56:00,81.5,68.6,29.85,WSW,240,9.0,12.0,65,0.00,,CLR,0.00,VWS V14.01,2013-06-16 20:56:00,
2013-06-16 17:00:00,81.3,68.9,29.85,WSW,241,13.0,15.0,66,0.00,,CLR,0.00,VWS V14.01,2013-06-16 21:00:00,
2013-06-16 17:05:00,81.1,69.1,29.85,WSW,249,8.0,9.0,67,0.00,,CLR,0.00,VWS V14.01,2013-06-16 21:05:00,
2013-06-16 17:10:00,80.9,68.9,29.85,WSW,240,11.0,12.0,67,0.00,,CLR,0.00,VWS V14.01,2013-06-16 21:10:00,
2013-06-16 17:15:00,81.0,69.4,29.85,SW,228,14.0,15.0,68,0.00,,CLR,0.00,VWS V14.01,2013-06-16 21:15:00,
2013-06-16 17:20:00,81.0,69.4,29.85,WSW,253,4.0,11.0,68,0.00,,CLR,0.00,VWS V14.01,2013-06-16 21:20:00,
2013-06-16 17:25:00,81.1,69.6,29.85,WSW,249,15.0,15.0,68,0.00,,CLR,0.00,VWS V14.01,2013-06-16 21:25:00,
2013-06-16 17:30:00,81.0,69.4,29.85,West,260,14.0,15.0,68,0.00,,CLR,0.00,VWS V14.01,2013-06-16 21:30:00,
2013-06-16 17:35:00,80.9,69.8,29.85,WSW,252,9.0,12.0,69,0.00,,CLR,0.00,VWS V14.01,2013-06-16 21:35:00,
2013-06-16 17:40:00,80.9,69.4,29.85,WSW,246,11.0,11.0,68,0.00,,CLR,0.00,VWS V14.01,2013-06-16 21:40:00,
2013-06-16 17:45:00,81.0,69.4,29.85,WSW,240,12.0,13.0,68,0.00,,CLR,0.00,VWS V14.01,2013-06-16 21:45:00,
2013-06-16 17:50:00,81.0,69.4,29.85,SW,224,5.0,12.0,68,0.00,,CLR,0.00,VWS V14.01,2013-06-16 21:50:00,
2013-06-16 17:55:00,81.1,69.6,29.85,WSW,245,9.0,10.0,68,0.00,,CLR,0.00,VWS V14.01,2013-06-16 21:55:00,
2013-06-16 18:00:00,81.1,69.6,29.84,WSW,240,11.0,12.0,68,0.00,,CLR,0.00,VWS V14.01,2013-06-16 22:00:00,
2013-06-16 18:05:00,81.1,69.6,29.84,SW,234,7.0,12.0,68,0.00,,CLR,0.00,VWS V14.01,2013-06-16 22:05:00,
2013-06-16 18:10:00,81.4,69.8,29.84,West,264,12.0,12.0,68,0.00,,CLR,0.00,VWS V14.01,2013-06-16 22:10:00,
2013-06-16 18:15:00,81.5,69.5,29.84,WSW,244,9.0,9.0,67,0.00,,CLR,0.00,VWS V14.01,2013-06-16 22:15:00,
2013-06-16 18:20:00,81.4,69.8,29.84,SW,229,8.0,13.0,68,0.00,,CLR,0.00,VWS V14.01,2013-06-16 22:20:00,
2013-06-16 18:25:00,81.4,69.8,29.84,WSW,244,7.0,12.0,68,0.00,,CLR,0.00,VWS V14.01,2013-06-16 22:25:00,
2013-06-16 18:30:00,81.2,69.6,29.84,WSW,240,7.0,11.0,68,0.00,,CLR,0.00,VWS V14.01,2013-06-16 22:30:00,
2013-06-16 18:35:00,81.1,69.6,29.84,SW,236,15.0,15.0,68,0.00,,CLR,0.00,VWS V14.01,2013-06-16 22:35:00,
2013-06-16 18:40:00,81.0,69.9,29.84,WSW,239,10.0,10.0,69,0.00,,CLR,0.00,VWS V14.01,2013-06-16 22:40:00,
2013-06-16 18:45:00,80.8,69.7,29.84,WSW,254,6.0,6.0,69,0.00,,CLR,0.00,VWS V14.01,2013-06-16 22:45:00,
2013-06-16 18:50:00,80.7,69.6,29.84,SW,235,6.0,11.0,69,0.00,,CLR,0.00,VWS V14.01,2013-06-16 22:50:00,
2013-06-16 18:55:00,80.6,69.5,29.84,SW,232,7.0,12.0,69,0.00,,CLR,0.00,VWS V14.01,2013-06-16 22:55:00,
2013-06-16 19:00:00,80.4,69.7,29.84,SW,232,8.0,10.0,70,0.00,,CLR,0.00,VWS V14.01,2013-06-16 23:00:00,
2013-06-16 19:05:00,80.3,69.6,29.84,WSW,243,6.0,10.0,70,0.00,,FEW090,0.00,VWS V14.01,2013-06-16 23:05:00,
2013-06-16 19:10:00,80.1,69.4,29.84,WSW,254,8.0,14.0,70,0.00,,SCT100,0.00,VWS V14.01,2013-06-16 23:10:00,
2013-06-16 19:15:00,79.9,69.7,29.84,SW,232,8.0,12.0,71,0.00,,SCT100,0.00,VWS V14.01,2013-06-16 23:15:00,
2013-06-16 19:20:00,79.9,69.7,29.84,WSW,239,9.0,9.0,71,0.00,,SCT100,0.00,VWS V14.01,2013-06-16 23:20:00,
2013-06-16 19:25:00,79.9,69.7,29.84,WSW,238,7.0,10.0,71,0.00,,SCT100,0.00,VWS V14.01,2013-06-16 23:25:00,
2013-06-16 19:30:00,79.8,69.6,29.84,WSW,239,8.0,10.0,71,0.00,,SCT100,0.00,VWS V14.01,2013-06-16 23:30:00,
2013-06-16 19:35:00,79.7,69.5,29.85,SW,233,9.0,9.0,71,0.00,,BKN110,0.00,VWS V14.01,2013-06-16 23:35:00,
2013-06-16 19:40:00,79.6,69.4,29.84,SW,225,6.0,11.0,71,0.00,,BKN110,0.00,VWS V14.01,2013-06-16 23:40:00,
2013-06-16 19:45:00,79.3,69.1,29.85,South,182,3.0,6.0,71,0.00,,BKN110,0.00,VWS V14.01,2013-06-16 23:45:00,
2013-06-16 19:50:00,78.2,68.4,29.85,SSW,211,6.0,8.0,72,0.00,,BKN110,0.00,VWS V14.01,2013-06-16 23:50:00,
2013-06-16 19:55:00,77.0,68.5,29.85,SW,219,11.0,11.0,75,0.00,,BKN110,0.00,VWS V14.01,2013-06-16 23:55:00,
2013-06-16 20:00:00,76.3,68.6,29.85,SW,226,7.0,8.0,77,0.00,,BKN110,0.00,VWS V14.01,2013-06-17 00:00:00,
2013-06-16 20:05:00,75.8,68.5,29.85,SW,219,8.0,8.0,78,0.00,,OVC080,0.00,VWS V14.01,2013-06-17 00:05:00,
2013-06-16 20:10:00,75.1,68.5,29.85,SW,225,9.0,9.0,80,0.00,,OVC080,0.00,VWS V14.01,2013-06-17 00:10:00,
2013-06-16 20:15:00,74.5,68.7,29.85,WSW,240,7.0,7.0,82,0.00,,OVC080,0.00,VWS V14.01,2013-06-17 00:15:00,
2013-06-16 20:20:00,73.8,68.7,29.89,WNW,284,18.0,27.0,84,0.00,,OVC080,0.00,VWS V14.01,2013-06-17 00:20:00,
2013-06-16 20:25:00,71.3,67.9,29.90,West,274,30.0,30.0,89,0.00,,,0.00,VWS V14.01,2013-06-17 00:25:00,
2013-06-16 20:30:00,70.2,67.8,29.90,West,269,23.0,26.0,92,0.00,,,0.00,VWS V14.01,2013-06-17 00:30:00,
2013-06-16 20:35:00,69.8,67.7,29.89,WSW,250,12.0,21.0,93,0.00,,,0.00,VWS V14.01,2013-06-17 00:35:00,
2013-06-16 20:40:00,69.5,67.4,29.88,West,277,11.0,12.0,93,0.00,,,0.00,VWS V14.01,2013-06-17 00:40:00,
2013-06-16 20:45:00,69.6,67.8,29.88,NW,308,7.0,8.0,94,0.00,,,0.00,VWS V14.01,2013-06-17 00:45:00,
2013-06-16 20:50:00,69.7,67.9,29.88,NW,309,7.0,7.0,94,0.00,,,0.00,VWS V14.01,2013-06-17 00:50:00,
2013-06-16 20:55:00,69.5,67.7,29.87,NW,314,5.0,5.0,94,0.00,,,0.00,VWS V14.01,2013-06-17 00:55:00,
2013-06-16 21:00:00,69.6,67.8,29.87,NW,323,4.0,4.0,94,0.00,,,0.00,VWS V14.01,2013-06-17 01:00:00,
2013-06-16 21:05:00,69.7,68.2,29.87,WNW,290,2.0,4.0,95,0.00,,,0.00,VWS V14.01,2013-06-17 01:05:00,
2013-06-16 21:10:00,69.8,68.3,29.87,West,277,2.0,3.0,95,0.00,,,0.00,VWS V14.01,2013-06-17 01:10:00,
2013-06-16 21:15:00,69.7,68.2,29.87,WSW,247,2.0,4.0,95,0.01,,BKN048,0.01,VWS V14.01,2013-06-17 01:15:00,
2013-06-16 21:20:00,69.7,68.2,29.87,SW,236,3.0,5.0,95,0.01,,BKN048,0.01,VWS V14.01,2013-06-17 01:20:00,
2013-06-16 21:25:00,69.8,68.3,29.87,West,274,2.0,2.0,95,0.01,,BKN048,0.01,VWS V14.01,2013-06-17 01:25:00,
2013-06-16 21:30:00,70.0,68.5,29.87,West,281,1.0,2.0,95,0.01,,BKN048,0.01,VWS V14.01,2013-06-17 01:30:00,
2013-06-16 21:35:00,69.9,68.4,29.87,West,259,3.0,3.0,95,0.01,,OVC060,0.01,VWS V14.01,2013-06-17 01:35:00,
2013-06-16 21:40:00,69.9,68.4,29.88,WSW,255,2.0,2.0,95,0.01,,OVC060,0.01,VWS V14.01,2013-06-17 01:40:00,
2013-06-16 21:45:00,69.8,68.3,29.88,WSW,248,2.0,2.0,95,0.01,,OVC060,0.01,VWS V14.01,2013-06-17 01:45:00,
2013-06-16 21:50:00,69.9,68.4,29.88,West,260,3.0,3.0,95,0.01,,OVC060,0.01,VWS V14.01,2013-06-17 01:50:00,
2013-06-16 21:55:00,69.9,68.4,29.88,West,273,1.0,2.0,95,0.01,,SCT060,0.01,VWS V14.01,2013-06-17 01:55:00,
2013-06-16 22:00:00,70.0,68.5,29.88,West,281,3.0,3.0,95,0.01,,SCT060,0.01,VWS V14.01,2013-06-17 02:00:00,
2013-06-16 22:05:00,69.9,68.4,29.88,WSW,257,3.0,3.0,95,0.01,,SCT060,0.01,VWS V14.01,2013-06-17 02:05:00,
2013-06-16 22:10:00,69.8,68.6,29.88,WSW,251,4.0,4.0,96,0.01,,SCT060,0.01,VWS V14.01,2013-06-17 02:10:00,
2013-06-16 22:15:00,69.8,68.6,29.88,West,259,3.0,3.0,96,0.00,,CLR,0.01,VWS V14.01,2013-06-17 02:15:00,
2013-06-16 22:20:00,69.7,68.5,29.88,WSW,255,4.0,4.0,96,0.00,,CLR,0.01,VWS V14.01,2013-06-17 02:20:00,
2013-06-16 22:25:00,69.7,68.5,29.88,West,260,3.0,3.0,96,0.00,,CLR,0.01,VWS V14.01,2013-06-17 02:25:00,
2013-06-16 22:30:00,69.7,68.5,29.88,WSW,242,3.0,3.0,96,0.00,,CLR,0.01,VWS V14.01,2013-06-17 02:30:00,
2013-06-16 22:35:00,69.7,68.5,29.88,WSW,241,2.0,4.0,96,0.00,,CLR,0.01,VWS V14.01,2013-06-17 02:35:00,
2013-06-16 22:40:00,69.8,68.6,29.87,WSW,250,3.0,4.0,96,0.00,,CLR,0.01,VWS V14.01,2013-06-17 02:40:00,
2013-06-16 22:45:00,69.8,68.6,29.87,WSW,248,3.0,4.0,96,0.00,,CLR,0.01,VWS V14.01,2013-06-17 02:45:00,
2013-06-16 22:50:00,69.9,68.7,29.87,WSW,240,3.0,4.0,96,0.00,,CLR,0.01,VWS V14.01,2013-06-17 02:50:00,
2013-06-16 22:55:00,69.9,68.7,29.87,WSW,249,3.0,3.0,96,0.00,,CLR,0.01,VWS V14.01,2013-06-17 02:55:00,
2013-06-16 23:00:00,70.0,68.8,29.88,WSW,240,3.0,3.0,96,0.00,,CLR,0.01,VWS V14.01,2013-06-17 03:00:00,
2013-06-16 23:05:00,69.9,68.7,29.88,West,259,3.0,3.0,96,0.00,,CLR,0.01,VWS V14.01,2013-06-17 03:05:00,
2013-06-16 23:10:00,69.9,68.7,29.88,WSW,248,3.0,3.0,96,0.00,,CLR,0.01,VWS V14.01,2013-06-17 03:10:00,
2013-06-16 23:15:00,69.8,68.6,29.88,WSW,254,3.0,3.0,96,0.00,,CLR,0.01,VWS V14.01,2013-06-17 03:15:00,
2013-06-16 23:20:00,69.8,68.6,29.88,WSW,242,2.0,3.0,96,0.00,,CLR,0.01,VWS V14.01,2013-06-17 03:20:00,
2013-06-16 23:25:00,69.8,68.6,29.88,WSW,240,0.0,0.0,96,0.00,,CLR,0.01,VWS V14.01,2013-06-17 03:25:00,
2013-06-16 23:30:00,69.7,68.5,29.88,WSW,240,1.0,1.0,96,0.00,,CLR,0.01,VWS V14.01,2013-06-17 03:30:00,
2013-06-16 23:35:00,69.5,68.3,29.88,WSW,250,2.0,2.0,96,0.00,,CLR,0.01,VWS V14.01,2013-06-17 03:35:00,
2013-06-16 23:40:00,69.5,68.3,29.88,SW,233,2.0,3.0,96,0.00,,CLR,0.01,VWS V14.01,2013-06-17 03:40:00,
2013-06-16 23:45:00,69.4,68.2,29.88,SSW,202,2.0,2.0,96,0.00,,CLR,0.01,VWS V14.01,2013-06-17 03:45:00,
2013-06-16 23:50:00,69.4,68.2,29.88,SSW,195,2.0,3.0,96,0.00,,CLR,0.01,VWS V14.01,2013-06-17 03:50:00,
2013-06-16 23:55:00,69.3,68.1,29.89,SSW,200,2.0,2.0,96,0.00,,CLR,0.01,VWS V14.01,2013-06-17 03:55:00,